"Pseudo-MPEC" for CEJHRZ2

Created 2026 Apr 16 23:35:09 UT using Find_Orb

Click here for an explanation of pseudo-MPECs

 
 Astrometry: 
     CEJHRZ2 0C2026 04 15.36138014 27 37.332+10 22 25.42   ~4GJZ 21.81gUNEOCPI41
     CEJHRZ2 0C2026 04 15.38357714 27 32.042+10 18 53.29   ~4GJZ 20.27iUNEOCPI41
     CEJHRZ2 0C2026 04 15.41534414 27 24.706+10 13 50.21   ~4GJZ 20.56rUNEOCPI41
     CEJHRZ2*1C2026 04 16.33018514 24 14.108+07 40 17.80   ~4G8o 20.53GVNEOCPG96
     CEJHRZ2 1C2026 04 16.33536914 24 12.755+07 39 23.04   ~4G8o 20.72GVNEOCPG96
     CEJHRZ2 1C2026 04 16.34055714 24 11.434+07 38 27.74   ~4G8o 20.67GVNEOCPG96
     CEJHRZ2 1C2026 04 16.34574314 24 10.120+07 37 32.88   ~4G8o 20.43GVNEOCPG96
     CEJHRZ2  C2026 04 16.36442614 24 05.023+07 34 11.90   ~4G9Z 20.7 GWNEOCPH01
     CEJHRZ2  C2026 04 16.36783114 24 04.153+07 33 35.57   ~4G9Z 20.4 GWNEOCPH01
     CEJHRZ2  C2026 04 16.37815814 24 01.523+07 31 45.52   ~4G9Z 20.2 GWNEOCPH01
     CEJHRZ2  C2026 04 16.38706814 23 59.259+07 30 10.46   ~4G9Z 20.3 GWNEOCPH01
     CEJHRZ2 1C2026 04 16.42948414 23 48.815+07 22 38.71   ~4GAZ 21.34GVNEOCPI52
     CEJHRZ2 1C2026 04 16.43034214 23 48.563+07 22 29.24   ~4GAZ 21.06GVNEOCPI52
     CEJHRZ2 1C2026 04 16.43207314 23 48.131+07 22 10.16   ~4GAZ       VNEOCPI52

Station data:
(G96) Mt. Lemmon Survey  (N32.442729 W110.788720)  US/Arizona.  Observer E.
   J. Christensen. Measurers T. Beuden, V. F. Carvajal, D. Fay, J. B.
   Fazekas, D. C. Fuls, A. R. Gibbs, A. D. Grauer, H. Gröller, J. K. Hogan,
   R. A. Kowalski, S. M. Larson, G. J. Leonard, D. Rankin, R. L. Seaman, F.
   C. Shelly, K. W. Wierzchoś. 1.5-m reflector + 10K CCD.
(H01) Magdalena Ridge Observatory, Socorro  (N33.984833 W107.189333)  US/New
   Mexico.  Observers W. H. Ryan, E. V. Ryan. Measurer W. H. Ryan. 2.4-m
   f/8.9 reflector + CCD.
(I41) Palomar Mountain--ZTF  (N33.357336 W116.859780)  US/California.
   Observers B. T. Bolin, Z. T. F. Collaboration. Measurers B. T. Bolin,
   Z.-Y. Lin, F. J. Masci. 1.2-m f/2.4 Schmidt.
(I52) Steward Observatory, Mt. Lemmon Station  (N32.442570 W110.788920)
   US/Arizona. Measurers T. Beuden, V. F. Carvajal, D. Fay, J. B. Fazekas, D.
   C. Fuls, A. R. Gibbs, A. D. Grauer, H. Gröller, J. K. Hogan, R. A.
   Kowalski, S. M. Larson, G. J. Leonard, D. Rankin, R. L. Seaman, F. C.
   Shelly, K. W. Wierzchoś. 1.0-m prime focus + CCD.

Orbital elements:  CEJHRZ2
   Perihelion 2026 May 23.020161 +/- 0.272 TT =  0:29:01.9 (JD 2461183.520161)
Epoch 2026 Apr 16.0 TT = JDT 2461146.5   Earth MOID: 0.0665      AutoNEOCP
M 339.207149224 +/- 0.24            (J2000 ecliptic)
n   0.561662890 +/- 0.0054          Peri.  212.515918 +/- 0.34
a   1.454852268 +/- 0.00933         Node    31.066896 +/- 0.011
e   0.28588601 +/- 0.00472          Incl.   19.989998 +/- 0.17
P   1.755/640.942d         H 24.91  G  0.15   U  9.2
q 1.038930357 +/- 0.00108    Q 1.870774179 +/- 0.0188
From 14 observations 2026 Apr. 15-16 (25.7 hr); mean residual 0".31
Residuals in arcseconds: 
260415 I41  .94+  .23+    260416 G96  .17-  .15-    260416 H01  .08-  .13+    
260415 I41  .86-  .52-    260416 G96  .01-  .01+    260416 I52  .45+  .26+    
260415 I41  .08-  .29+    260416 H01  .02-  .07+    260416 I52  .08-  .01+    
260416 G96  .22+  .01-    260416 H01  .06-  .00     260416 I52  .01-  .47-    
260416 G96  .23-  .14+    260416 H01  .08-  .06+    

Ephemerides (geocentric):
Date (UTC) HH   RA             Dec           delta  r     elong  mag " sig PA
---- --------  ------------   ------------  ------ ------ -----  --- --------
2026 04 17 00  14 21 40.815   +05 38 16.86  .08805 1.0873 160.8 20.7 1.88  21
2026 04 17 01  14 21 30.952   +05 30 20.80  .08785 1.0871 161.0 20.7 2.03  20
2026 04 17 02  14 21 21.048   +05 22 22.56  .08766 1.0870 161.1 20.7 2.18  20
2026 04 17 03  14 21 11.101   +05 14 22.14  .08747 1.0869 161.3 20.7 2.33  20
2026 04 17 04  14 21 01.111   +05 06 19.54  .08728 1.0868 161.4 20.7 2.50  20
2026 04 17 05  14 20 51.079   +04 58 14.74  .08709 1.0867 161.6 20.7 2.67  20
2026 04 17 06  14 20 41.004   +04 50 07.75  .08690 1.0866 161.7 20.7 2.84  20
2026 04 17 07  14 20 30.886   +04 41 58.55  .08671 1.0865 161.9 20.7 3.03  20
2026 04 17 08  14 20 20.725   +04 33 47.14  .08652 1.0864 162.0 20.7 3.22  19
2026 04 17 09  14 20 10.520   +04 25 33.51  .08633 1.0863 162.1 20.7 3.41  19
2026 04 17 10  14 20 00.271   +04 17 17.65  .08615 1.0862 162.3 20.6 3.62  19
2026 04 17 11  14 19 49.979   +04 08 59.57  .08596 1.0861 162.4 20.6 3.83  19
2026 04 17 12  14 19 39.642   +04 00 39.24  .08578 1.0860 162.6 20.6 4.05  19
2026 04 17 13  14 19 29.261   +03 52 16.67  .08559 1.0859 162.7 20.6 4.27  19
2026 04 17 14  14 19 18.836   +03 43 51.84  .08540 1.0858 162.9 20.6 4.50  19
2026 04 17 15  14 19 08.366   +03 35 24.76  .08522 1.0857 163.0 20.6 4.74  19
2026 04 17 16  14 18 57.851   +03 26 55.41  .08504 1.0856 163.2 20.6 4.99  19
2026 04 17 17  14 18 47.291   +03 18 23.79  .08485 1.0855 163.3 20.6 5.24  19
2026 04 17 18  14 18 36.686   +03 09 49.89  .08467 1.0854 163.5 20.6 5.50  19
2026 04 17 19  14 18 26.035   +03 01 13.72  .08449 1.0853 163.6 20.6 5.77  19
2026 04 17 20  14 18 15.338   +02 52 35.25  .08431 1.0851 163.8 20.5 6.05  19
2026 04 17 21  14 18 04.595   +02 43 54.49  .08413 1.0850 164.0 20.5 6.34  19
2026 04 17 22  14 17 53.807   +02 35 11.43  .08395 1.0849 164.1 20.5 6.63  18
2026 04 17 23  14 17 42.972   +02 26 26.06  .08377 1.0848 164.3 20.5 6.93  18
2026 04 18 00  14 17 32.090   +02 17 38.38  .08359 1.0847 164.4 20.5 7.24  18
2026 04 18 01  14 17 21.161   +02 08 48.38  .08342 1.0846 164.6 20.5 7.55  18
2026 04 18 02  14 17 10.186   +01 59 56.07  .08324 1.0845 164.7 20.5 7.88  18
2026 04 18 03  14 16 59.163   +01 51 01.42  .08306 1.0844 164.9 20.5 8.21  18
2026 04 18 04  14 16 48.093   +01 42 04.45  .08289 1.0843 165.1 20.5 8.55  18
2026 04 18 05  14 16 36.975   +01 33 05.13  .08271 1.0842 165.2 20.5 8.90  18
2026 04 18 06  14 16 25.809   +01 24 03.48  .08254 1.0841 165.4 20.4 9.26  18
2026 04 18 07  14 16 14.595   +01 14 59.47  .08236 1.0840 165.5 20.4 9.63  18
2026 04 18 08  14 16 03.332   +01 05 53.12  .08219 1.0839 165.7 20.4 10.0  18
2026 04 18 09  14 15 52.021   +00 56 44.41  .08202 1.0838 165.9 20.4 10.4  18
2026 04 18 10  14 15 40.661   +00 47 33.34  .08185 1.0837 166.0 20.4 10.8  18
2026 04 18 11  14 15 29.253   +00 38 19.91  .08168 1.0836 166.2 20.4 11.2  18
2026 04 18 12  14 15 17.794   +00 29 04.10  .08151 1.0835 166.4 20.4 11.6  18
2026 04 18 13  14 15 06.287   +00 19 45.93  .08134 1.0834 166.5 20.4 12.0  18
2026 04 18 14  14 14 54.729   +00 10 25.38  .08117 1.0833 166.7 20.4 12.4  18
2026 04 18 15  14 14 43.122   +00 01 02.45  .08100 1.0832 166.9 20.4 12.9  18
2026 04 18 16  14 14 31.464   -00 08 22.87  .08084 1.0831 167.0 20.3 13.3  18
2026 04 18 17  14 14 19.756   -00 17 50.57  .08067 1.0830 167.2 20.3 13.8  18
2026 04 18 18  14 14 07.997   -00 27 20.66  .08050 1.0829 167.4 20.3 14.3  18
2026 04 18 19  14 13 56.187   -00 36 53.14  .08034 1.0828 167.5 20.3 14.7  18
2026 04 18 20  14 13 44.326   -00 46 28.02  .08018 1.0827 167.7 20.3 15.2  18
2026 04 18 21  14 13 32.413   -00 56 05.30  .08001 1.0826 167.9 20.3 15.7  18
2026 04 18 22  14 13 20.449   -01 05 44.98  .07985 1.0825 168.0 20.3 16.2  18
2026 04 18 23  14 13 08.432   -01 15 27.06  .07969 1.0824 168.2 20.3 16.7  18